SoleKIDs - All Valley Spring Championship 5K — Results

Boise, Idaho, United States

1st Place

Sawyer Burgeson

Pre-K

20:42

2nd Place

Michael Sheffer

Pre-K

21:12

3rd Place

Parker McGee

Pre-K

21:24

# Bib Name Gender Gender Rank Age Group AG Rank Finish Time Pace
51 283 Ryder Esola Male 39 28:45 9:16 /mi
52 20 Blakely King Female 13 28:45 9:16 /mi
53 392 Beckett Crowley Male 40 28:45 9:17 /mi
54 282 Dominic Esola Male 41 28:46 9:17 /mi
55 360 Zoe Brady Female 14 28:51 9:18 /mi
56 227 Cadence Burke Female 15 29:01 9:22 /mi
57 545 Micah Rowe Male 42 29:12 9:25 /mi
58 256 Curtis Millward Male 43 29:16 9:26 /mi
59 358 Lila Beard Female 16 29:25 9:29 /mi
60 345 Karl Ulwelling Male 44 29:31 9:31 /mi
61 1 Reid Axtman Male 45 29:34 9:32 /mi
62 33 Callen Vanshur Male 46 29:34 9:32 /mi
63 13 Tess Erickson Female 17 29:36 9:33 /mi
64 43 Harper Donahue Female 18 29:36 9:33 /mi
65 336 Mason Odom Male 47 29:40 9:34 /mi
66 251 Finnick Lull Male 48 29:43 9:35 /mi
67 455 Bennett Tomlinson Male 49 29:43 9:35 /mi
68 222 Andrew Mueller Male 50 29:43 9:35 /mi
69 317 Lj Christensen Male 51 29:44 9:35 /mi
70 272 Kyle Brueck Male 52 29:55 9:39 /mi
71 440 Aden Mesenbrink Male 53 29:58 9:40 /mi
72 226 Gunnar Bittick Male 54 30:04 9:42 /mi
73 329 Wyatt Johnson Male 55 30:12 9:44 /mi
74 225 Jack Barrera Male 56 30:12 9:45 /mi
75 214 Tobin Carrier Male 57 30:13 9:45 /mi
76 149 Teancum Murray Male 58 30:14 9:45 /mi
77 507 Caiden Scrima Male 59 30:25 9:49 /mi
78 264 Kadance Walsh Female 19 30:27 9:49 /mi
79 192 Alesia Herwy Female 20 30:35 9:52 /mi
80 359 Dara Bias Female 21 30:41 9:54 /mi
81 211 Clayton Carrier Male 60 30:43 9:54 /mi
82 209 Madison Wiersma Female 22 30:47 9:56 /mi
83 92 Evelyn Kreller Female 23 30:54 9:58 /mi
84 307 Savannah Galvan Female 24 31:08 10:02 /mi
85 422 Moira Garity Female 25 31:16 10:05 /mi
86 40 Jack Capener Male 61 31:17 10:05 /mi
87 114 Hanif Bultum Male 62 31:18 10:06 /mi
88 42 Zane Capener Male 63 31:20 10:06 /mi
89 543 Finn Stevens Male 64 31:21 10:07 /mi
90 318 Riaan Christensen Female 26 31:22 10:07 /mi
91 456 Leonardo Wang Male 65 31:25 10:08 /mi
92 160 Maxwell Fleming Male 66 31:26 10:08 /mi
93 407 Nate Rowe Male 67 31:29 10:09 /mi
94 278 Carbon Cornia Male 68 31:31 10:10 /mi
95 342 Aj Sheffer Male 69 31:35 10:11 /mi
96 324 Levi Handel Male 70 31:35 10:11 /mi
97 179 Miya Beaufort Female 27 31:37 10:12 /mi
98 398 Sebastian Madrigal-Racchetto Male 71 31:42 10:13 /mi
99 375 Ezra Lorenzo Male 72 31:44 10:14 /mi
100 166 Drew Montgomery Male 73 31:44 10:14 /mi

Showing 51–100 of 399 results